Weather History for South Lake Tahoe, CA

Change the Weather History Date:

Saturday, October 26, 2013

  Actual Average Record
Temperature  
Mean Temperature 47 °F 43 °F  
Max Temperature 67 °F 59 °F 75 °F (1990)
Min Temperature 27 °F 26 °F 17 °F (2004)
Degree Days  
Heating Degree Days 18 22  
Month to date heating degree days 516 490  
Since 1 July heating degree days 944 1116  
Cooling Degree Days 0 0  
Month to date cooling degree days 0 0  
Year to date cooling degree days 104 31  
Moisture  
Dew Point 18 °F    
Average Humidity 39    
Maximum Humidity 63    
Minimum Humidity 15    
Precipitation  
Precipitation 0.00 in - 2.51 in (1991)
Month to date precipitation 0.04  
Year to date precipitation 7.19  
Sea Level Pressure  
Sea Level Pressure 30.25 in    
Wind  
Wind Speed 3 mph (SE)    
Max Wind Speed 9 mph    
Max Gust Speed 14 mph    
Visibility 10 miles    
Events      
T = Trace of Precipitation, MM = Missing Value Source: NWS Daily Summary

Daily Weather History Graph

Daily Weather History Graph

Search for Another Location

Airport:

Trip Planner

Search our weather history database for the weather conditions in past years. The results will help you decide how hot, cold, wet, or windy it might be!

Date:

Astronomy

Oct. 26, 2013 Rise Set
Actual Time 7:21 AM PDT 6:06 PM PDT
Civil Twilight 6:53 AM PDT 6:33 PM PDT
Nautical Twilight 6:22 AM PDT 7:04 PM PDT
Astronomical Twilight 5:51 AM PDT 7:35 PM PDT
Moon No Moon Rise 1:39 PM PDT (10/26)
Length of Visible Light 11h 39m
Length of Day
10h 45m
Waning Gibbous, 52% of the Moon is Illuminated
Oct 26
Waning Gibbous
Oct 26
Last Quarter
Nov 3
New
Nov 9
First Quarter
Nov 17
Full

Hourly Weather History & Observations

Time (PDT) Temp. Windchill Dew Point Humidity Pressure Visibility Wind Dir Wind Speed Gust Speed Precip Events Conditions
12:53 AM 30.9 °F 26.2 °F 15.1 °F 52% 30.27 in 10.0 mi SSW 4.6 mph - N/A   Clear
1:53 AM 30.0 °F 26.5 °F 14.0 °F 51% 30.26 in 10.0 mi South 3.5 mph - N/A   Clear
2:53 AM 28.9 °F 25.2 °F 14.0 °F 54% 30.26 in 10.0 mi SSW 3.5 mph - N/A   Clear
3:53 AM 28.9 °F - 14.0 °F 54% 30.26 in 10.0 mi Calm Calm - N/A   Clear
4:53 AM 28.9 °F - 15.1 °F 56% 30.27 in 10.0 mi Calm Calm - N/A   Clear
5:53 AM 28.0 °F 24.2 °F 15.1 °F 58% 30.30 in 10.0 mi South 3.5 mph - N/A   Clear
6:53 AM 27.0 °F - 14.0 °F 58% 30.33 in 10.0 mi Calm Calm - N/A   Clear
7:53 AM 27.0 °F 23.0 °F 15.1 °F 61% 30.35 in 10.0 mi South 3.5 mph - N/A   Clear
8:53 AM 34.0 °F 31.0 °F 17.1 °F 50% 30.35 in 10.0 mi South 3.5 mph - N/A   Clear
9:53 AM 48.0 °F - 19.0 °F 32% 30.31 in 10.0 mi Calm Calm - N/A   Clear
10:53 AM 59.0 °F - 21.9 °F 24% 30.27 in 10.0 mi NNE 4.6 mph - N/A   Clear
11:53 AM 61.0 °F - 23.0 °F 23% 30.27 in 10.0 mi NE 5.8 mph - N/A   Clear
12:53 PM 63.0 °F - 23.0 °F 22% 30.24 in 10.0 mi Variable 5.8 mph - N/A   Clear
1:53 PM 63.0 °F - 23.0 °F 22% 30.21 in 10.0 mi NNE 3.5 mph - N/A   Clear
2:53 PM 64.9 °F - 23.0 °F 20% 30.20 in 10.0 mi NNE 8.1 mph - N/A   Clear
3:53 PM 66.0 °F - 18.0 °F 16% 30.19 in 10.0 mi Calm Calm - N/A   Clear
4:53 PM 62.1 °F - 18.0 °F 18% 30.19 in 10.0 mi NNE 4.6 mph - N/A   Clear
5:53 PM 54.0 °F - 19.0 °F 25% 30.22 in 10.0 mi Calm Calm - N/A   Clear
6:53 PM 48.0 °F - 18.0 °F 30% 30.25 in 10.0 mi Calm Calm - N/A   Clear
7:53 PM 44.1 °F - 19.9 °F 38% 30.26 in 10.0 mi Calm Calm - N/A   Clear
8:53 PM 39.0 °F - 21.0 °F 49% 30.25 in 10.0 mi Calm Calm - N/A   Clear
9:53 PM 37.0 °F - 19.9 °F 50% 30.22 in 10.0 mi Calm Calm - N/A   Clear
10:53 PM 35.1 °F - 19.0 °F 52% 30.19 in 10.0 mi Calm Calm - N/A   Clear
11:53 PM 32.0 °F - 18.0 °F 56% 30.17 in 10.0 mi Calm Calm - N/A   Clear